AirNav   Pilot Hours Calculator
 
 1746 users online  

4KS7 Butler Airpark
Rose Hill, Kansas, USA

GOING TO ROSE HILL?


FAA INFORMATION EFFECTIVE 08 SEPTEMBER 2022

Location

FAA Identifier: 4KS7
Lat/Long: 37-33-32.0680N 097-03-54.1380W
37-33.534467N 097-03.902300W
37.5589078,-97.0650383
(estimated)
Elevation: 1310 ft. / 399 m (estimated)
Variation: 07E (1985)
From city: 3 miles E of ROSE HILL, KS
Time zone: UTC -5 (UTC -6 during Standard Time)
Zip code: 67133

Airport Operations

Airport use: Private use. Permission required prior to landing
Activation date: 04/1991
Control tower: no
ARTCC: KANSAS CITY CENTER
FSS: WICHITA FLIGHT SERVICE STATION
Attendance: IREG
Wind indicator: yes
Segmented circle: yes

Airport Communications

WX AWOS-3P at 3AU (7 nm N): 124.175 (316-733-6696)
WX AWOS-3PT at BEC (11 nm NW): 119.45 (316-515-7116)
WX AWOS-2 at 1K1 (13 nm N): 118.3 (316-530-6004)
WX ASOS at AAO (14 nm NW): 134.025 (316-636-2541)
WX AWOS-3P at EQA (17 nm NE): 120.875 (316-322-8095)
WX ASOS at ICT (18 nm W): PHONE 316-945-8022

Nearby radio navigation aids

VOR radial/distance  VOR name  Freq  Var
ICTr107/27.1WICHITA VORTAC113.8007E

Airport Services

Runway Information

Runway 1/19

Dimensions: 2687 x 40 ft. / 819 x 12 m
Surface: turf
RUNWAY 1  RUNWAY 19
Traffic pattern: rightleft
Obstructions: 15 ft. road, 30 ft. from runwaynone

Airport Ownership and Management from official FAA records

Ownership: Privately-owned
Owner: BUTLER AIRPARK HOMEOWNERS ASSN INC
PO BOX 14
ROSE HILL, KS 67133
Phone (316) 925-2215
Manager: MILO D. MCCLURE
18404 SW PRAIRIE RIDGE RD
ROSE HILL, KS 67133
Phone (316) 925-2215

Airport Operational Statistics

Aircraft based on the field: 8
Single engine airplanes: 6
Ultralights: 2
    

Additional Remarks

ALL TRAFFIC REMAIN EAST OF RY.
FOR CD CTC WICHITA APCH AT 316-350-1520.

Instrument Procedures

There are no published instrument procedures at 4KS7.

Some nearby airports with instrument procedures:

3AU - Augusta Municipal Airport (7 nm N)
KCEA - Cessna Aircraft Field Airport (10 nm NW)
KIAB - Mc Connell Air Force Base (10 nm W)
KBEC - Beech Factory Airport (11 nm NW)
1K1 - Lloyd Stearman Field Airport (13 nm N)
KAAO - Colonel James Jabara Airport (14 nm NW)
KEQA - El Dorado/Capt Jack Thomas Memorial Airport (17 nm NE)
KICT - Wichita Dwight D Eisenhower National Airport (18 nm W)
 
Loc | Ops | Rwys | IFR | FBO | Links
Com | Nav | Svcs | Stats | Notes
Area around 4KS7 (Butler Airpark)
 
Road maps at: MapQuest Bing Google
 
Aerial photo
WARNING: Photo may not be current or correct
Aerial photo of 4KS7 (Butler Airpark)
Photo by Brian FitzGerald
Photo taken 15-Jun-2016
from 1/2 mile SSW at 900 AGL.

Do you have a better or more recent aerial photo of Butler Airpark that you would like to share? If so, please send us your photo.

 
Sectional chart

 
Airport distance calculator
Flying to Butler Airpark? Find the distance to fly.

From to 4KS7

Sunrise and sunset
Times for 04-Oct-2022
 Local
(UTC-5)
 Zulu
(UTC)
Morning civil twilight07:0112:01
Sunrise07:2712:27
Sunset19:0700:07
Evening civil twilight19:3300:33

Current date and time
Zulu (UTC)  04-Oct-2022 18:04:26
Local (UTC-5)  04-Oct-2022 13:04:26
 
METAR
K3AU 
7nm N 
041755Z AUTO 20009G16KT 10SM CLR 28/00 A3013 RMK AO2
KIAB 
10nm W 
041655Z AUTO 00000KT 10SM CLR 26/06 A3011 RMK AO2 SLP189 T02580059
KBEC 
11nm NW 
041755Z AUTO 20011G15KT 10SM CLR 27/05 A3012 RMK AO2 T02720046 10278 20122
K1K1 
13nm N 
041755Z AUTO 21011G17KT 10SM CLR 27/02 A3013 RMK AO2 T02700024 10270 20110
KAAO 
14nm NW 
041754Z AUTO 18011G19KT 10SM CLR 28/05 A3012 RMK AO2 SLP191 T02830050 10289 20100 58011
KEQA 
17nm NE 
041755Z AUTO 21011G16KT 10SM CLR 29/03 A3013 RMK AO2
KICT 
18nm W 
041753Z 19015G22KT 10SM SCT200 28/04 A3011 RMK AO2 SLP186 T02830044 10283 20106 58012
TAF
KIAB 
10nm W 
041000Z 0410/0516 16006KT 9999 SKC QNH3008INS BECMG 0418/0419 20012G18KT 9999 FEW220 QNH3003INS BECMG 0500/0501 VRB06KT 9999 SCT070 BKN080 QNH3004INS TX29/0422Z TN12/0510Z
KICT 
18nm W 
041144Z 0412/0512 16005KT P6SM FEW250 FM041700 19013KT P6SM SCT250 FM042300 16007KT P6SM SCT100 BKN150
NOTAMs
Click for the latest NOTAMs
NOTAMs are issued by the DoD/FAA and will open in a separate window not controlled by AirNav.

 

 
 

Would you like to see your business listed on this page?

 If your business provides an interesting product or service to pilots, flight crews, aircraft, or users of the Butler Airpark, you should consider listing it here.  To start the listing process, click on the button below
 
Add a business
 

Other Pages about Butler Airpark

Update a link
 
Copyright © AirNav, LLC. All rights reserved. Privacy Policy  Contact